Weather History for PAOM - June, 2013

Change the Weather History Date:

Saturday, June 29, 2013

  Actual Average Record
Temperature  
Mean Temperature 50 °F 51 °F  
Max Temperature 55 °F 58 °F 78 °F (1911)
Min Temperature 45 °F 45 °F 31 °F (1949)
Degree Days  
Heating Degree Days 15 14  
Month to date heating degree days 461 502  
Since 1 June heating degree days 461 502  
Since 1 July heating degree days 14246 13690  
Cooling Degree Days 0    
Month to date cooling degree days 7  
Year to date cooling degree days 7  
Since 1 June cooling degree days 7  
Moisture  
Dew Point 49 °F    
Average Humidity 0    
Maximum Humidity 0    
Minimum Humidity 0    
Precipitation  
Precipitation 0.32 in 0.04 in 0.88 in (1942)
Month to date precipitation 1.93 0.94  
Year to date precipitation 6.18 5.08  
Snow  
Snow 0.00 in 0.00 in 0.00 in (2014)
Month to date snowfall 0.1 0.3  
Since 1 June snowfall 0.1 0.3  
Since 1 July snowfall 65.8 75.7  
Snow Depth 0.00 in    
Sea Level Pressure  
Sea Level Pressure 29.84 in    
Wind  
Wind Speed 13 mph (East)    
Max Wind Speed 25 mph    
Max Gust Speed 31 mph    
Visibility 9 miles    
Events Rain    
T = Trace of Precipitation, MM = Missing Value Source: NWS Daily Summary

Daily Weather History Graph

Daily Weather History Graph

Search for Another Location

Airport or City:

Trip Planner

Search our weather history database for the weather conditions in past years. The results will help you decide how hot, cold, wet, or windy it might be!

Date:

Astronomy

Jun. 29, 2013 Rise Set
Actual Time 4:27 AM AKDT 1:41 AM AKDT
Civil Twilight Sun does not rise Sun does not rise
Nautical Twilight Sun does not rise Sun does not rise
Astronomical Twilight Sun does not rise Sun does not rise
Moon 1:56 AM AKDT (6/29) 3:28 PM AKDT (6/29)
Length of Visible Light 24h 00m
Length of Day
21h 13m
Waning Gibbous, 54% of the Moon is Illuminated
Jun 29
Waning Gibbous
Jun 29
Last Quarter
Jul 7
New
Jul 15
First Quarter
Jul 22
Full

Hourly Weather History & Observations

Time (AKDT) Temp. Windchill Dew Point Humidity Pressure Visibility Wind Dir Wind Speed Gust Speed Precip Events Conditions
12:53 AM 48.0 °F - 46.9 °F 96% 30.02 in 10.0 mi Calm Calm - N/A   Overcast
1:28 AM 48.2 °F - 46.4 °F 93% 30.02 in 10.0 mi East 4.6 mph - N/A   Overcast
1:53 AM 46.9 °F - 46.0 °F 97% 30.01 in 10.0 mi ENE 5.8 mph - N/A   Overcast
2:53 AM 45.0 °F 41.8 °F 44.1 °F 97% 30.01 in 10.0 mi NE 5.8 mph - N/A   Overcast
3:20 AM 46.4 °F 44.3 °F 44.6 °F 93% 29.99 in 10.0 mi NNE 4.6 mph - N/A   Overcast
3:53 AM 46.9 °F - 45.0 °F 93% 29.99 in 10.0 mi NE 6.9 mph - N/A   Overcast
4:53 AM 46.9 °F - 45.0 °F 93% 29.97 in 10.0 mi Calm Calm - N/A   Overcast
5:53 AM 46.9 °F - 45.0 °F 93% 29.97 in 10.0 mi NNE 3.5 mph - N/A   Overcast
6:53 AM 48.9 °F - 45.0 °F 86% 29.95 in 9.0 mi ENE 8.1 mph - 0.00 in Rain Light Rain
7:53 AM 48.9 °F - 45.0 °F 86% 29.92 in 10.0 mi ENE 11.5 mph - 0.02 in Rain Light Rain
8:16 AM 48.2 °F - 44.6 °F 87% 29.92 in 10.0 mi ENE 10.4 mph - 0.00 in Rain Light Rain
8:53 AM 50.0 °F - 46.0 °F 86% 29.90 in 9.0 mi East 11.5 mph - 0.01 in Rain Light Rain
9:32 AM 50.0 °F - 46.4 °F 87% 29.90 in 10.0 mi East 12.7 mph - 0.01 in Rain Light Rain
9:45 AM 50.0 °F - 46.4 °F 87% 29.89 in 10.0 mi East 13.8 mph - 0.01 in Rain Light Rain
9:53 AM 50.0 °F - 46.9 °F 89% 29.89 in 10.0 mi East 12.7 mph - 0.01 in Rain Light Rain
10:50 AM 51.8 °F - 48.2 °F 88% 29.87 in 8.0 mi East 13.8 mph - 0.01 in Rain Light Rain
10:53 AM 51.1 °F - 48.0 °F 89% 29.87 in 7.0 mi East 13.8 mph - 0.01 in Rain Light Rain
11:31 AM 51.8 °F - 50.0 °F 94% 29.86 in 8.0 mi East 15.0 mph - 0.02 in Rain Light Rain
11:53 AM 52.0 °F - 51.1 °F 97% 29.86 in 4.0 mi ESE 17.3 mph - 0.03 in Rain Light Rain
12:24 PM 51.8 °F - 51.8 °F 100% 29.85 in 4.0 mi ESE 13.8 mph - 0.04 in Rain Light Rain
12:53 PM 52.0 °F - 51.1 °F 97% 29.86 in 5.0 mi ESE 12.7 mph - 0.06 in Rain Light Rain
1:42 PM 51.8 °F - 51.8 °F 100% 29.84 in 9.0 mi SE 13.8 mph - 0.02 in Rain Light Rain
1:53 PM 52.0 °F - 51.1 °F 97% 29.84 in 9.0 mi SE 13.8 mph - 0.02 in Rain Light Rain
2:11 PM 51.8 °F - 51.8 °F 100% 29.84 in 10.0 mi SE 13.8 mph - 0.00 in Rain Light Rain
2:14 PM 51.8 °F - 51.8 °F 100% 29.84 in 10.0 mi SE 13.8 mph - 0.00 in Rain Light Rain
2:53 PM 52.0 °F - 51.1 °F 97% 29.83 in 10.0 mi ESE 13.8 mph - 0.01 in   Overcast
3:25 PM 53.6 °F - 51.8 °F 94% 29.83 in 10.0 mi ESE 11.5 mph - 0.00 in   Overcast
3:53 PM 54.0 °F - 51.1 °F 90% 29.82 in 10.0 mi ESE 13.8 mph - 0.00 in Rain Light Rain
4:53 PM 54.0 °F - 51.1 °F 90% 29.81 in 10.0 mi ESE 12.7 mph - 0.00 in Rain Light Rain
5:53 PM 54.0 °F - 52.0 °F 93% 29.77 in 6.0 mi ESE 18.4 mph - 0.02 in Rain Light Rain
6:53 PM 55.0 °F - 53.1 °F 93% 29.75 in 8.0 mi ESE 17.3 mph - 0.02 in Rain Light Rain
7:53 PM 54.0 °F - 53.1 °F 97% 29.73 in 6.0 mi ESE 15.0 mph - 0.02 in Rain Light Rain
8:17 PM 53.6 °F - 51.8 °F 94% 29.71 in 3.0 mi ESE 16.1 mph - 0.03 in Rain Light Rain
8:32 PM 53.6 °F - 51.8 °F 94% 29.70 in 6.0 mi ESE 17.3 mph 27.6 mph 0.03 in Rain Light Rain
8:41 PM 53.6 °F - 51.8 °F 94% 29.70 in 9.0 mi ESE 17.3 mph - 0.03 in Rain Light Rain
8:53 PM 54.0 °F - 52.0 °F 93% 29.70 in 10.0 mi ESE 18.4 mph 25.3 mph 0.03 in Rain Light Rain
9:01 PM 53.6 °F - 51.8 °F 94% 29.69 in 8.0 mi ESE 19.6 mph - 0.00 in Rain Light Rain
9:53 PM 53.1 °F - 52.0 °F 96% 29.68 in 10.0 mi ESE 20.7 mph 28.8 mph 0.02 in Rain Light Rain
10:39 PM 51.8 °F - 50.0 °F 94% 29.66 in 5.0 mi SE 23.0 mph 29.9 mph 0.00 in Rain Light Rain
10:53 PM 52.0 °F - 48.9 °F 89% 29.66 in 6.0 mi SE 19.6 mph 29.9 mph 0.02 in Rain Light Rain
11:53 PM 51.1 °F - 48.9 °F 92% 29.65 in 6.0 mi ESE 16.1 mph 23.0 mph 0.01 in Rain Light Rain